Location: Dentlein
(49.1477°N, 10.4231°E)
Time: 10:18:11
(UTC+00:00)

Cosmos 1833 Rocket - Pass Details

Date: 23 May 2024
Orbit: 832 x 839 km, 71.0° (Epoch: 15 June)

Event Time Altitude Azimuth Distance (km) Brightness Sun altitude
Exits shadow 00:08:18 18° 246° (WSW) 1,917 4.2 -19.2°
Maximum altitude 00:12:01 41° 308° (NW) 1,190 3.6 -19.1°
Drops below altitude 10° 00:17:20 10° 19° (NNE) 2,455 6.4 -18.9°
Sets 00:19:56 0° 26° (NNE) 3,394 7.4 -18.7°
